Terminal Aerodrome Forecast
Issued by NWS Des Moines, IA

Home | Current Version | Previous Version | Text Only | Print | Product List | Glossary On
Versions: 1 2 3 4 5 6 7 8 9 10 11 12 13 14 15 16 17 18 19 20 21 22 23 24 25 26 27
000
FTUS43 KDMX 271127
TAFDSM
TAF
KDSM 271127Z 2712/2812 VRB03KT P6SM VCSH BKN030 OVC045
      TEMPO 2712/2714 04006KT 3SM -RA BR OVC020
     FM271600 18007KT P6SM SCT015 OVC035
     FM280200 14005KT 5SM -TSRA SCT020CB OVC040
     FM280700 17005KT 2SM TSRA BR SCT008CB OVC018=

USA.gov is the U.S. government's official web portal to all federal, state and local government web resources and services.